Location: Splawn
(30.9202°N, 96.9858°W)
Time: 02:17:46
(UTC+00:00)

ISS - Visible Passes

Search period start: 21 January 2020 00:00
Search period end: 31 January 2020 00:00
Orbit: 415 x 421 km, 51.6° (Epoch: 21 January)

Date Brightness Start Highest point End Pass type
(mag) Time Alt. Az. Time Alt. Az. Time Alt. Az.
21 Jan -2.1 01:06:50 10° WSW 01:09:47 28° NW 01:11:37 18° N visible
22 Jan -3.1 00:18:27 10° WSW 00:21:44 53° NW 00:25:02 10° NE visible
23 Jan -1.0 01:09:45 10° NW 01:10:50 11° NNW 01:11:54 10° NNW visible
24 Jan -1.4 00:20:15 10° W 00:22:37 18° NW 00:24:58 10° N visible
